The Dilly Family's Weather Page
McMurray, PA 15317   Weather
Using a La Crosse Technology Model 2315 Weather Station

  Local Radar

Local Radar

  Graphs, Details
Detailed Weather
Detailed Reports
Mobile Version of This Page
Brief Version of This Page
  Maps
Temperature
Heat Index
Windchill
Humidity
Radar
Dew Point
Wind
Visibility
Visible Satellite
Satellite
Fronts
Snow Depth
Jet Stream
Flight Rules
  Forecast Maps
Temperature Forecast
Maximum Temperature Forecast
Minimum Temperature Forecast
Dewpoint Forecast
Prevalent Weather
12Hr Probability of Precip.
Sky Cover
  Health Maps
UV Forecast
Air Quality
Peak Air Quality Index
  Weather Station
La Crosse Technology
 
 
Weather Underground PWS KPAMCMUR4
KPAMCMUR4 Dashboard
 

HeavyWeather Data
WeatherForYou.com METAR
Worldwide Station List METAR
Meteorological Products Processed At The NWSTG
Stickers       Local PC Clock

  Current Conditions [Select Refresh to Update]

Updated: 10:34pm on 5/22/15

Currently:
52.5°

Clear
Clear

High: 68.1° 
(5:22pm) 
Low: 44.4° 
(4:19am)
Wind: 0 mph from the ENE
Gust: 0 mph
Today's High Wind: 12 mph (6:05pm)
Humidity: 53%
Pressure: 30.24 in  (Rising) 
Pressure Rate: 0.036 in/hr
Dew Point: 35.9°
Wind Chill: 52.5°
Heat Index (feels like): 53.6°
Comfort Level: Cool
Temperature Rate:  -3.05°/hr
 
  5 Day Forecast
 
Sat Sun Mon Tue Wed
Clear Clear Clear Clear Clear
Clear Mostly Cloudy Chance T-storms Chance T-storms Chance T-storms
68° 77° 82° 84° 82°
45° 60° 66° 66° 66°

  Records and Normals
 
Temperature Forecast Normal Record
High 68° 73° 90°
(1970)
Low 45° 52° 30°
(2002)
 
  Almanac
Sunrise:  
5:58am
Moonrise: 
10:13am

Moon Phase:
17%

Sunset: 
8:35pm
Moonset:  
---
 
  Weather Underground     KPAMCMUR4

  Weather Advisories
Warning Date: 10:03 PM EDT on May 22, 2015
Warning Description: Frost Advisory
Full Advisory Text...
  Weather Map

 
  Web Cams   (Northerly View)
Northerly view toward Pittsburgh.
 
  Rainfall Totals
Hourly Rain 0.00 in
Daily Rain 0.00 in
Monthly Rain 3.03 in
Yearly Rain 14.45 in
Normal Rain, month to date       0.94 in
Normal Rain, year to date 16.97 in
 
 
Weather.com
WeatherUnderground NorthEast Fronts
WeatherUnderground NorthEast Radar
WeatherBug NorthEast Radar
WeatherBug, Peters HS
WPXI Weather
KDKA Weather
WTEA Weather
Intellacast Canonsburg
AccuWeather
Yahoo, McMurray
Twitter, Pittsburgh
Fox53 Radar - Uses Pop-up Ads!
Time and Date, Pittsburgh
NOAA Weather Pitt
FilghtStats PIT
NWS Thompsonville
USGS Tides and Temperature at Manasquan
NWS US Radar - Loop
Windyty, Wind Forecast
  Local Weather Exchange Network
Station ID

City 
(Click for Map Location)

Neighborhood 
(Click for History)
Last Update (Date & Time)

Temperature
 (°)

Dew
Point (°)
Humidity 
(%)
Wind 
(mph)
from the Wind Gust 
(mph) 
Pressure (in) Hourly
Rain (in)
KPACANON8 Canonsburg Hooks Lane 05/22 22:21:28 55.9 38.0 51 0 North 0 30.39 0.00
KPACANON7 Canonsburg Scenery Circle 05/22 22:21:31 51.6 31.0 45 0 North 0 30.34 0.00
KPAMCMUR5 McMurray Bremen Lane 05/22 22:20:59 57.0 37.0 47 0 North 0 30.32 0.00
KPAMCMUR4 McMurray Thompsonville-McMurray 05/22 22:30:02 52.8 35.0 50 0 ENE 0 30.24 0.00
KPABRIDG3 Bridgeville Willowbrook 05/22 22:29:50 52.7 36.0 52 0 NNE 0 30.33 0.00
KPACANON6 Canonsburg Sunset Acres, McMurray PA KPACANON6 05/22 22:29:12 52.7 35.0 51 0 WNW 0 30.27 0.00
KPAMCMUR3 McMurray St. Benedict the Abbot 05/22 22:24:09 52.3 35.0 51 0 WNW 0 30.24 0.00
KPABRIDG2 Bridgeville Hunting Ridge 05/22 22:30:04 55.6 35.0 45 0 East 0 29.09 0.00
KPAEIGHT3 Eighty Four Nottingham Twp. 05/22 22:30:07 52.7 34.0 48 4 North 4 30.30 0.00
KPAVENET5 Venetia Willamar 05/22 22:23:22 53.1 36.0 51 0 NE 0 30.23 0.00
KPABRIDG1 Bridgeville Olde Orchard South Fayette Bridgeville 05/22 22:29:59 48.2 33.0 56 0 WNW 1 30.18 0.00
KPAVENET3 Venetia Bower Hill Rd 05/22 22:30:00 48.9 38.0 67 0 North 0 30.31 0.00
KPABETHE4 Bethel Park Bethel Park, PA - Terrasurv 05/22 22:29:08 51.4 34.0 50 0 NNE 0 30.26 0.00
MD6598 Cuddy APRSWXNET 05/22 21:51:00 51.0 35.0 54 0 WSW 4 30.28 0.00
KPAPITTS109 Pittsburgh Tragone Drive 05/22 22:21:31 54.0 33.0 45 0 North 0 30.39 0.00
KPABETHE1 Pittsburgh Bethel Park 05/22 22:16:23 51.8 32.0 46 0 SSE 0 30.20 0.00
KPABETHE3 Bethel Park Bethel Park 05/22 22:25:16 50.7 37.0 59 0 North 1 30.30 0.00
KPAWASHI5 Washington Cameron Estates/South Strabane 05/22 22:15:14 50.3 35.0 55 5 NE 0 30.29 0.00
KPAVENET4 Venetia Sugar Run Road 05/22 22:30:05 49.4 31.0 49 0 East 2 30.11 0.00
KPAFINLE2 Finleyville Banahasky Lane 05/22 22:21:48 56.7 44.0 62 0 North 0 30.15 0.00
KPAPITTS89 Pittsburgh Washington Road 05/22 22:21:27 55.2 37.0 50 0 North 0 30.39 0.00
KPAWASHI3 Washington Canton Twp. 05/22 22:16:47 50.5 34.0 54 0 NE 0 30.28 0.00
KPASCOTT2 Scott Township Scott Township Neighborhood Weather 05/22 22:29:57 54.5 24.0 31 0 South 3 30.37 0.00
KPAPITTS87 Pittsburgh Mt. Lebanon, PA 05/22 22:29:54 51.0 32.0 47 0 SSW 3 30.34 0.00
KPAPITTS98 Pittsburgh Jamestown Road 05/22 22:21:33 55.2 33.0 43 0 North 0 30.33 0.00
KPAPITTS139 Pittsburgh Dormont 2 05/22 22:29:53 54.3 32.0 42 0 NE 2 30.15 0.00
KPAPITTS50 Pittsburgh Dormont 05/22 22:30:06 53.4 33.0 45 1 East 8 30.17 0.00
KPAPITTS140 Pittsburgh Grandin Avenue 05/22 22:21:14 56.8 34.0 42 0 North 0 30.17 0.00
KPAPITTS97 Pittsburgh Greentree 05/22 22:29:47 53.4 32.0 43 0 ESE 2 30.21 0.00
KPAPITTS134 Pittsburgh Brookline Twin Oak 05/22 22:29:58 54.0 31.0 41 2 SE 8 30.36 0.00
KPAPITTS132 Pittsburgh Robinson Drive 05/22 22:21:56 54.1 36.0 49 0 North 0 30.35 0.00
KPAPITTS88 Pittsburgh Village Green Drive 05/22 22:21:28 54.0 32.0 42 0 North 0 30.38 0.00
KPAPITTS29 Pittsburgh Carrick/Pittsburgh 05/22 22:28:26 52.1 33.0 48 0 NE 4 30.29 0.00
KPACRAFT2 Crafton Bradford Court 05/22 22:30:03 52.0 43.0 71 0 North 0 30.06 0.00
KPAPITTS58 Pittsburgh Robinson Township 05/22 22:29:59 52.9 34.0 48 5 NNE 5 30.25 0.00
KPAIMPER4 Imperial Walden Woods 05/22 22:29:47 52.7 32.0 46 1 NNW 2 30.44 0.00
KPAPITTS46 Pittsburgh Baldwin 05/22 22:30:00 53.6 33.0 46 0 North 0 30.33 0.00
KAFJ Washington Official Station 05/22 22:15:00 52.0 30.0 44 6 NNW --- 30.33 ---
KAGC Pittsburgh Allegheny Co. Official Station 05/22 21:53:00 52.0 28.0 40 9 North --- 30.31 ---
KPIT Pittsburgh Official Station 05/22 21:51:00 54.0 31.0 41 9 NNE --- 30.32 ---
  Full Advisory Text
Warning Description: Frost Advisory

Warning Date: 10:03 PM EDT on May 22, 2015

WarningSum:...Frost Advisory Remains In Effect Until 9 Am Edt Saturday...

Warning Message:* temperatures...in the mid 30s.
* Impacts...sensitive plants may be damaged or destroyed.
Precautionary/preparedness actions...
A frost advisory means that widespread frost is expected.
Sensitive outdoor plants may be killed if left uncovered.
        

5/22/15 4+ 10:34pm   - http://weatherstation.wunderground.com/weatherstation/updateweatherstation.php?action=updateraw&ID=KPASMITH2&PASSWORD=&dateutc=2010-07-05+22%3A09%3A33&winddir=ENE&tempf=52.5&windspeedmph=0&humidity=53&dewptf=35.9&baromin=30.24&rainin=0.00&dailyrainin=0.00

Ambient Weather and Weather Underground
 Never base important decisions on this or any weather information obtained from the Internet
Updated Automatically by Ambient Weather's Virtual Weather Station  V14.00

Template updated: 7:39 AM 2/21/2015